User: anonymous   Login
Location: Unspecified
(0.0000°N, 0.0000°E)
Time: 08:55:11
(UTC+02:00)
Language:

Resurs 01 Rocket - Orbit

View from above orbital plane
View from above orbital plane
View from above satellite
View from above satellite

Ground track
Ground track

The orbit data is extracted from the following two-line orbital elements,

1 23343U 94074B   16181.65900525 -.00000006  00000-0  68166-5 0  9997
2 23343  98.1925 208.3473 0008129 118.1588 352.9638 14.76661302164801
Epoch (UTC): 29 June 2016 15:48:58
Eccentricity: 0.0008129
inclination: 98.1925°
perigee height: 634 km
apogee height: 645 km
right ascension of ascending node: 208.3473°
argument of perigee: 118.1588°
revolutions per day: 14.76661302
mean anomaly at epoch: 352.9638°
orbit number at epoch: 16480

The dashed part of the orbit path shows where the satellite is in the earth's shadow,  

DLR